| time (UTC) | temp F | wind direction | speed MPH | gust MPH | rain 1hr in | rain 24hr in | rain mn in | humidity % | barometer mb |
| 20260507200032 | 60 | 4 | 5.0 | 12.0 | 0.00 | 0.24 | 0.10 | 36 | 1025.1 |
| 20260507194623 | 59 | 4 | 2.0 | 10.0 | 0.00 | 0.25 | 0.10 | 36 | 1025.2 |
| 20260507193032 | 59 | 4 | 2.0 | 8.0 | 0.00 | 0.25 | 0.10 | 32 | 1025.7 |
| 20260507191625 | 58 | 4 | 3.0 | 10.0 | 0.00 | 0.25 | 0.10 | 33 | 1026.3 |
| 20260507190048 | 57 | 4 | 3.0 | 6.0 | 0.00 | 0.25 | 0.10 | 32 | 1026.8 |
| 20260507184506 | 56 | 4 | 2.0 | 9.0 | 0.00 | 0.25 | 0.10 | 31 | 1027.2 |
| 20260507183056 | 56 | 4 | 2.0 | 8.0 | 0.00 | 0.25 | 0.10 | 31 | 1027.5 |
| 20260507181519 | 55 | 4 | 1.0 | 9.0 | 0.00 | 0.25 | 0.10 | 27 | 1027.8 |
| 20260507180118 | 55 | 4 | 1.0 | 5.0 | 0.00 | 0.25 | 0.10 | 25 | 1028.1 |
| 20260507174554 | 55 | 4 | 1.0 | 4.0 | 0.00 | 0.27 | 0.10 | 25 | 1028.5 |
| 20260507173123 | 54 | 4 | 1.0 | 3.0 | 0.00 | 0.27 | 0.10 | 26 | 1028.6 |
| 20260507171559 | 54 | 4 | 2.0 | 5.0 | 0.00 | 0.27 | 0.10 | 24 | 1028.8 |
| 20260507170123 | 53 | 4 | 1.0 | 5.0 | 0.00 | 0.27 | 0.10 | 29 | 1029.0 |
| 20260507164551 | 53 | 4 | 1.0 | 4.0 | 0.00 | 0.28 | 0.10 | 26 | 1029.2 |
| 20260507163006 | 54 | 4 | 1.0 | 3.0 | 0.00 | 0.28 | 0.10 | 29 | 1029.2 |
| 20260507161602 | 53 | 4 | 0.0 | 4.0 | 0.00 | 0.28 | 0.10 | 34 | 1029.3 |
| 20260507160016 | 53 | 4 | 0.0 | 5.0 | 0.01 | 0.28 | 0.10 | 34 | 1029.4 |
| 20260507154606 | 52 | 8 | 1.0 | 6.0 | 0.02 | 0.28 | 0.10 | 41 | 1029.6 |
| 20260507153026 | 51 | 4 | 0.0 | 5.0 | 0.03 | 0.28 | 0.10 | 45 | 1029.7 |
| 20260507151601 | 51 | 4 | 2.0 | 4.0 | 0.04 | 0.28 | 0.10 | 47 | 1030.0 |
| 20260507150054 | 50 | 4 | 0.0 | 4.0 | 0.05 | 0.27 | 0.09 | 53 | 1030.2 |
| 20260507144551 | 50 | 4 | 0.0 | 6.0 | 0.05 | 0.26 | 0.08 | 53 | 1030.3 |
| 20260507143046 | 49 | 4 | 0.0 | 1.0 | 0.05 | 0.25 | 0.07 | 56 | 1030.4 |
| 20260507141541 | 49 | 4 | 0.0 | 1.0 | 0.04 | 0.23 | 0.05 | 62 | 1030.4 |
| 20260507140045 | 46 | 4 | 0.0 | 0.0 | 0.04 | 0.22 | 0.04 | 65 | 1030.6 |
| 20260507134533 | 44 | 4 | 0.0 | 6.0 | 0.03 | 0.21 | 0.03 | 64 | 1030.7 |
| 20260507133032 | 43 | 4 | 4.0 | 9.0 | 0.02 | 0.20 | 0.02 | 60 | 1030.9 |
| 20260507131544 | 41 | 4 | 3.0 | 10.0 | 0.01 | 0.19 | 0.01 | 61 | 1031.0 |
| 20260507130020 | 39 | 4 | 4.0 | 9.0 | 0.00 | 0.18 | 0.00 | 64 | 1031.0 |
| 20260507124520 | 37 | 4 | 3.0 | 8.0 | 0.00 | 0.18 | 0.00 | 64 | 1030.9 |
| 20260507123013 | 35 | 4 | 4.0 | 9.0 | 0.00 | 0.18 | 0.00 | 65 | 1030.7 |
| 20260507121509 | 32 | 4 | 3.0 | 6.0 | 0.00 | 0.18 | 0.00 | 71 | 1030.6 |
| 20260507120008 | 31 | 4 | 3.0 | 5.0 | 0.00 | 0.18 | 0.00 | 72 | 1030.7 |
| 20260507114505 | 31 | 4 | 3.0 | 6.0 | 0.00 | 0.18 | 0.00 | 71 | 1030.6 |
| 20260507113131 | 31 | 4 | 3.0 | 8.0 | 0.00 | 0.18 | 0.00 | 72 | 1030.4 |
| 20260507111507 | 31 | 4 | 4.0 | 9.0 | 0.00 | 0.18 | 0.00 | 73 | 1030.7 |
| 20260507110058 | 31 | 4 | 6.0 | 9.0 | 0.00 | 0.18 | 0.00 | 73 | 1030.8 |
| 20260507104519 | 30 | 4 | 2.0 | 5.0 | 0.00 | 0.18 | 0.00 | 75 | 1030.9 |
| 20260507103105 | 31 | 4 | 4.0 | 9.0 | 0.00 | 0.18 | 0.00 | 74 | 1030.8 |
| 20260507101532 | 31 | 4 | 4.0 | 9.0 | 0.00 | 0.18 | 0.00 | 76 | 1031.1 |
| 20260507100124 | 30 | 4 | 5.0 | 9.0 | 0.00 | 0.18 | 0.00 | 77 | 1031.2 |
| 20260507094555 | 30 | 4 | 3.0 | 8.0 | 0.00 | 0.18 | 0.00 | 78 | 1031.2 |
| 20260507093005 | 30 | 4 | 3.0 | 8.0 | 0.00 | 0.18 | 0.00 | 78 | 1030.9 |
| 20260507091555 | 30 | 9 | 3.0 | 8.0 | 0.00 | 0.18 | 0.00 | 79 | 1030.9 |
| 20260507090007 | 31 | 4 | 2.0 | 9.0 | 0.00 | 0.18 | 0.00 | 77 | 1030.7 |
| 20260507084603 | 31 | 4 | 3.0 | 9.0 | 0.00 | 0.18 | 0.00 | 77 | 1030.5 |
| 20260507083018 | 31 | 4 | 4.0 | 9.0 | 0.00 | 0.18 | 0.00 | 77 | 1030.6 |
| 20260507081557 | 31 | 8 | 6.0 | 9.0 | 0.00 | 0.18 | 0.00 | 77 | 1030.7 |
| 20260507080019 | 32 | 4 | 6.0 | 9.0 | 0.00 | 0.18 | 0.00 | 76 | 1030.8 |
| 20260507074615 | 33 | 4 | 5.0 | 9.0 | 0.00 | 0.18 | 0.00 | 76 | 1031.0 |
| 20260507073041 | 32 | 4 | 2.0 | 11.0 | 0.00 | 0.18 | 0.00 | 80 | 1031.2 |
| 20260507071632 | 31 | 4 | 3.0 | 9.0 | 0.00 | 0.18 | 0.00 | 82 | 1031.1 |
| 20260507070049 | 32 | 4 | 1.0 | 4.0 | 0.00 | 0.18 | 0.00 | 81 | 1031.2 |
| 20260507064506 | 33 | 4 | 2.0 | 8.0 | 0.00 | 0.18 | 0.00 | 81 | 1031.0 |
| 20260507063055 | 33 | 4 | 5.0 | 9.0 | 0.00 | 0.18 | 0.00 | 82 | 1031.0 |
| 20260507061506 | 33 | 4 | 4.0 | 14.0 | 0.00 | 0.18 | 0.00 | 84 | 1030.8 |
| 20260507060056 | 33 | 8 | 3.0 | 12.0 | 0.00 | 0.18 | 0.00 | 85 | 1030.8 |
| 20260507054534 | 33 | 4 | 3.0 | 8.0 | 0.00 | 0.18 | 0.18 | 86 | 1030.6 |
| 20260507053115 | 33 | 4 | 2.0 | 9.0 | 0.00 | 0.18 | 0.18 | 87 | 1030.6 |
| 20260507051535 | 32 | 4 | 2.0 | 8.0 | 0.00 | 0.18 | 0.18 | 89 | 1030.5 |
| 20260507050129 | 32 | 4 | 2.0 | 9.0 | 0.00 | 0.18 | 0.18 | 89 | 1030.6 |
| 20260507044554 | 31 | 4 | 3.0 | 8.0 | 0.00 | 0.18 | 0.18 | 90 | 1030.6 |
| 20260507043001 | 30 | 4 | 4.0 | 8.0 | 0.00 | 0.18 | 0.18 | 91 | 1030.6 |
| 20260507041601 | 30 | 4 | 5.0 | 9.0 | 0.00 | 0.18 | 0.18 | 91 | 1030.5 |
| 20260507040025 | 30 | 8 | 4.0 | 6.0 | 0.00 | 0.18 | 0.18 | 92 | 1030.6 |
| 20260507034621 | 29 | 4 | 1.0 | 6.0 | 0.00 | 0.18 | 0.18 | 92 | 1030.7 |
| 20260507033044 | 29 | 4 | 2.0 | 4.0 | 0.00 | 0.18 | 0.18 | 92 | 1030.6 |
| 20260507031625 | 29 | 4 | 0.0 | 3.0 | 0.00 | 0.18 | 0.18 | 92 | 1030.5 |
| 20260507030035 | 29 | 4 | 3.0 | 5.0 | 0.00 | 0.18 | 0.18 | 92 | 1030.3 |
| 20260507024613 | 28 | 4 | 1.0 | 4.0 | 0.00 | 0.19 | 0.18 | 92 | 1030.2 |
| 20260507023034 | 28 | 4 | 4.0 | 5.0 | 0.00 | 0.19 | 0.18 | 93 | 1030.0 |
| 20260507021543 | 28 | 8 | 2.0 | 4.0 | 0.00 | 0.19 | 0.18 | 92 | 1030.1 |
| 20260507020120 | 28 | 4 | 1.0 | 3.0 | 0.00 | 0.19 | 0.18 | 92 | 1030.0 |
| 20260507014541 | 29 | 4 | 0.0 | 0.0 | 0.00 | 0.21 | 0.18 | 92 | 1030.0 |
| 20260507013130 | 29 | 4 | 1.0 | 2.0 | 0.00 | 0.21 | 0.18 | 92 | 1030.2 |
| 20260507011540 | 29 | 4 | 0.0 | 3.0 | 0.01 | 0.21 | 0.18 | 92 | 1030.4 |
| 20260507010121 | 30 | 4 | 1.0 | 4.0 | 0.01 | 0.21 | 0.18 | 92 | 1030.2 |
| 20260507004536 | 30 | 4 | 0.0 | 4.0 | 0.02 | 0.24 | 0.18 | 92 | 1030.1 |
| 20260507003128 | 30 | 4 | 2.0 | 4.0 | 0.02 | 0.24 | 0.18 | 92 | 1030.2 |
| 20260507001551 | 30 | 4 | 0.0 | 2.0 | 0.02 | 0.23 | 0.17 | 92 | 1030.4 |
| 20260507000013 | 30 | 4 | 0.0 | 3.0 | 0.03 | 0.23 | 0.17 | 92 | 1030.4 |
| 20260506234627 | 30 | 4 | 1.0 | 5.0 | 0.03 | 0.25 | 0.16 | 92 | 1030.3 |
| 20260506233027 | 30 | 4 | 0.0 | 0.0 | 0.03 | 0.24 | 0.15 | 92 | 1030.3 |
| 20260506231619 | 30 | 4 | 0.0 | 1.0 | 0.04 | 0.24 | 0.15 | 92 | 1030.0 |
| 20260506230034 | 30 | 4 | 1.0 | 4.0 | 0.04 | 0.23 | 0.14 | 92 | 1029.6 |
| 20260506224625 | 30 | 4 | 0.0 | 5.0 | 0.04 | 0.22 | 0.13 | 92 | 1029.6 |
| 20260506223040 | 30 | 4 | 2.0 | 6.0 | 0.04 | 0.21 | 0.12 | 92 | 1029.4 |
| 20260506221631 | 30 | 4 | 4.0 | 8.0 | 0.04 | 0.20 | 0.11 | 93 | 1029.4 |
| 20260506220052 | 30 | 4 | 6.0 | 11.0 | 0.04 | 0.19 | 0.10 | 93 | 1029.1 |
| 20260506214508 | 30 | 4 | 4.0 | 10.0 | 0.02 | 0.17 | 0.08 | 93 | 1029.2 |
| 20260506213107 | 30 | 4 | 4.0 | 10.0 | 0.03 | 0.17 | 0.08 | 93 | 1029.0 |
| 20260506211516 | 29 | 4 | 7.0 | 13.0 | 0.03 | 0.16 | 0.07 | 93 | 1029.0 |
| 20260506210111 | 30 | 4 | 4.0 | 10.0 | 0.02 | 0.15 | 0.06 | 93 | 1029.1 |
| 20260506204547 | 29 | 4 | 5.0 | 11.0 | 0.02 | 0.15 | 0.06 | 93 | 1029.0 |
| 20260506203129 | 29 | 4 | 7.0 | 13.0 | 0.02 | 0.14 | 0.05 | 93 | 1028.5 |